Location: Daouli
(14.8671°N, 3.2030°W)
Time: 00:13:11
(UTC+00:00)

H-2A R/B - Pass Details

Date: 29 October 2020
Orbit: 733 x 837 km, 98.2° (Epoch: 03 December)

Event Time Altitude Azimuth Distance (km) Brightness Sun altitude
Rises 19:27:20 0° 165° (SSE) 3,304 5.2 -25.1°
Reaches altitude 10° 19:29:38 10° 164° (SSE) 2,388 4.5 -25.6°
Enters shadow 19:31:37 24° 161° (SSE) 1,636 3.6 -26.1°
Exits shadow 19:37:08 37° 356° (N) 1,254 3.0 -27.4°
Drops below altitude 10° 19:40:21 10° 351° (N) 2,437 4.6 -28.2°
Sets 19:42:44 0° 351° (N) 3,376 5.4 -28.7°
